Flag for Denmark Weather past 2 weeks in Aalborg, Denmark

Now
45 °F

Clear.


Feels Like: 41 °F
Forecast: 40 / 59 °F
Wind: 7 mph from Northeast

Location: Aalborg Airport


UV Index: 3 (Moderate)

Visibility: 10 mi


Pressure: 30.12 "Hg

Humidity: 81%

Dew point: 39 °F

Location of AalborgLocation

Historic Weather in Aalborg

°F

Aalborg temperature yesterday

Maximum temperature yesterday: 55 °F (at 10:50 AM)
Minimum temperature yesterday: 43 °F (at 12:20 AM)
Average temperature yesterday: 47 °F

Past Weeks' High & Low Weather Summary

 TemperatureHumidityPressure
High59 °F (Apr 7, 3:20 PM)100% (Apr 5, 4:50 PM)30.42 "Hg (Apr 5, 4:50 PM)
Low32 °F (Apr 16, 5:20 AM)32% (Apr 15, 3:50 PM)29.45 "Hg (Apr 14, 4:50 AM)
Average47 °F79%29.90 "Hg
* Reported Apr 3 9:20 PM — Apr 18 9:50 PM, Aalborg, Weather by CustomWeather, © 2014

Note: Actual official high and low records may vary slightly from our data, if they occured in-between our weather recording intervals... More about our weather records

Advertising

Historic Weather Conditions — Data for Previous 24 hours

 ConditionsComfort  
Time TempWeatherWind HumidityBarometerVisibility
9:50 PM
Apr 18
46 °FPassing clouds.8 mph76%30.09 "HgN/A
9:20 PM46 °FPassing clouds.8 mph76%30.09 "HgN/A
8:50 PM48 °FPassing clouds.9 mph71%30.07 "HgN/A
8:20 PM48 °FPassing clouds.9 mph71%30.07 "HgN/A
7:50 PM50 °FPassing clouds.9 mph67%30.04 "HgN/A
7:20 PM50 °FPassing clouds.12 mph67%30.04 "HgN/A
6:50 PM52 °FPassing clouds.13 mph62%30.04 "HgN/A
6:20 PM52 °FPassing clouds.13 mph62%30.01 "HgN/A
5:50 PM52 °FScattered clouds.15 mph62%30.01 "HgN/A
5:20 PM50 °FScattered clouds.15 mph67%29.98 "HgN/A
4:50 PM50 °FBroken clouds.15 mph67%29.98 "HgN/A
4:20 PM50 °FScattered clouds.15 mph67%29.95 "HgN/A
3:20 PM48 °FBroken clouds.17 mph71%29.92 "HgN/A
2:50 PM48 °FPartly sunny.20 mph66%29.92 "HgN/A
2:20 PM48 °FPartly sunny.17 mph62%29.92 "HgN/A
1:50 PM50 °FPartly sunny.22 mph58%29.89 "HgN/A
1:20 PM50 °FPartly sunny.22 mph58%29.89 "HgN/A
12:50 PM48 °FPartly sunny.21 mph66%29.86 "HgN/A
12:20 PM50 °FPartly sunny.21 mph58%29.86 "HgN/A
11:50 AM48 °FPartly sunny.21 mph62%29.83 "HgN/A
11:20 AM48 °FPartly sunny.22 mph62%29.83 "HgN/A
10:50 AM48 °FPartly sunny.21 mph66%29.80 "HgN/A
10:20 AM48 °FPartly sunny.20 mph58%29.80 "HgN/A
9:50 AM48 °FScattered clouds.20 mph62%29.77 "HgN/A
9:20 AM48 °FScattered clouds.16 mph66%29.74 "HgN/A
8:50 AM46 °FSunny.13 mph76%29.74 "Hg10 mi
8:20 AM45 °FSunny.7 mph81%29.74 "Hg10 mi
7:50 AM45 °FScattered clouds.6 mph81%29.74 "HgN/A
7:20 AM43 °FPartly sunny.6 mph81%29.71 "HgN/A
6:50 AM41 °FPassing clouds.7 mph87%29.68 "HgN/A
6:20 AM39 °FPassing clouds.8 mph93%29.68 "HgN/A
5:20 AM36 °FPassing clouds.6 mph100%29.65 "HgN/A
4:50 AM37 °FPassing clouds.6 mph100%29.62 "HgN/A
4:20 AM39 °FPassing clouds.7 mph87%29.62 "HgN/A
3:50 AM41 °FPassing clouds.6 mph87%29.59 "HgN/A
3:20 AM43 °FPassing clouds.7 mph87%29.59 "HgN/A
2:50 AM43 °FPassing clouds.9 mph87%29.59 "HgN/A
2:20 AM43 °FPassing clouds.8 mph87%29.59 "HgN/A
1:20 AM43 °FPartly cloudy.9 mph87%29.59 "HgN/A
12:50 AM43 °FPassing clouds.13 mph87%29.59 "HgN/A
12:20 AM43 °FPassing clouds.13 mph87%29.59 "HgN/A
11:50 PM
Apr 17
43 °FPassing clouds.14 mph87%29.59 "HgN/A
11:20 PM43 °FSprinkles. Partly cloudy.13 mph87%29.59 "HgN/A
10:50 PM43 °FPartly cloudy.13 mph87%29.59 "HgN/A
10:20 PM43 °FPassing clouds.17 mph87%29.59 "HgN/A
Weather by CustomWeather, © 2014

See weather overview